• In Belarus
  • List of Countries
  • For 7 days
  • Water Temperature
  • Satellite Maps
  • Weather Map
  • Weather Widgets
  • user-avatar
    Login

    Hourly Weather Kapan

    Today, 19 March, Tuesday

    Time Temperature Precipitation Wind Pressure Humidity
    00:00 +5°C° 0.1 mm 1 mps 684 mmHg 85%
    01:00 +5°C° 0.1 mm 1 mps 685 mmHg 87%
    02:00 +5°C° 0.1 mm 1 mps 685 mmHg 88%
    03:00 +5°C° 0 mm 1 mps 684 mmHg 88%
    04:00 +5°C° 0.6 mm 1 mps 684 mmHg 88%
    05:00 +5°C° 0.6 mm 1 mps 685 mmHg 89%
    06:00 +4°C° 0.6 mm 1 mps 685 mmHg 89%
    07:00 +5°C° 1 mm 1 mps 685 mmHg 89%
    08:00 +5°C° 1 mm 1 mps 685 mmHg 88%
    09:00 +5°C° 0 mm 1 mps 685 mmHg 84%
    10:00 +5°C° 0.6 mm 1 mps 685 mmHg 82%
    11:00 +5°C° 0.6 mm 1 mps 685 mmHg 81%
    12:00 +6°C° 0.6 mm 1 mps 685 mmHg 80%
    13:00 +6°C° 0.5 mm 1 mps 685 mmHg 79%
    14:00 +5°C° 0.5 mm 2 mps 685 mmHg 78%
    15:00 +5°C° 0 mm 2 mps 685 mmHg 79%
    16:00 +5°C° 0.4 mm 2 mps 685 mmHg 81%
    17:00 +5°C° 0.4 mm 1 mps 685 mmHg 84%
    18:00 +5°C° 0.4 mm 1 mps 685 mmHg 86%
    19:00 +4°C° 0.2 mm 1 mps 686 mmHg 86%
    20:00 +4°C° 0.2 mm 1 mps 686 mmHg 86%
    21:00 +3°C° 0.2 mm 0 mps 686 mmHg 86%
    22:00 +3°C° 0.1 mm 1 mps 686 mmHg 83%
    23:00 +3°C° 0.1 mm 1 mps 686 mmHg 81%

    Tomorrow, 20 March, Wednesday

    Time Temperature Precipitation Wind Pressure Humidity
    00:00 +3°C° 0.1 mm 1 mps 686 mmHg 79%
    01:00 +3°C° 0.1 mm 1 mps 686 mmHg 77%
    02:00 +3°C° 0.1 mm 1 mps 686 mmHg 76%
    03:00 +3°C° 0.1 mm 1 mps 686 mmHg 74%
    04:00 +3°C° 0.1 mm 1 mps 686 mmHg 73%
    05:00 +3°C° 0.1 mm 1 mps 686 mmHg 73%
    06:00 +1°C° 0.1 mm 2 mps 686 mmHg 72%
    07:00 +4°C° 0.1 mm 1 mps 686 mmHg 68%
    08:00 +5°C° 0.1 mm 1 mps 686 mmHg 65%
    09:00 +6°C° 0.1 mm 1 mps 686 mmHg 61%
    10:00 +7°C° 0.1 mm 1 mps 686 mmHg 61%
    11:00 +8°C° 0.1 mm 1 mps 686 mmHg 61%
    12:00 +8°C° 0.1 mm 1 mps 686 mmHg 61%
    13:00 +7°C° 0.1 mm 2 mps 685 mmHg 60%
    14:00 +7°C° 0.1 mm 2 mps 685 mmHg 59%
    15:00 +8°C° 0.1 mm 2 mps 685 mmHg 58%
    16:00 +7°C° 0.1 mm 2 mps 685 mmHg 61%
    17:00 +7°C° 0.1 mm 1 mps 685 mmHg 65%
    18:00 +6°C° 0.1 mm 1 mps 685 mmHg 68%
    19:00 +6°C° 0.1 mm 1 mps 685 mmHg 70%
    20:00 +5°C° 0.1 mm 1 mps 685 mmHg 72%
    21:00 +4°C° 0.1 mm 0 mps 685 mmHg 74%
    22:00 +5°C° 0.1 mm 1 mps 685 mmHg 74%
    23:00 +5°C° 0.1 mm 1 mps 685 mmHg 74%

    Day after tomorrow, 21 March, Thursday

    Time Temperature Precipitation Wind Pressure Humidity
    00:00 +4°C° 0.1 mm 1 mps 685 mmHg 73%
    01:00 +4°C° 0 mm 1 mps 685 mmHg 73%
    02:00 +4°C° 0 mm 1 mps 685 mmHg 72%
    03:00 +4°C° 0 mm 1 mps 685 mmHg 71%
    04:00 +4°C° 0 mm 1 mps 685 mmHg 70%
    05:00 +4°C° 0 mm 1 mps 685 mmHg 69%
    06:00 +4°C° 0 mm 1 mps 685 mmHg 69%
    07:00 +5°C° 0 mm 1 mps 685 mmHg 64%
    08:00 +7°C° 0 mm 1 mps 686 mmHg 60%
    09:00 +8°C° 0 mm 1 mps 686 mmHg 56%
    10:00 +9°C° 0 mm 1 mps 686 mmHg 55%
    11:00 +9°C° 0 mm 2 mps 686 mmHg 55%
    12:00 +10°C° 0 mm 2 mps 686 mmHg 54%
    13:00 +10°C° 0 mm 2 mps 685 mmHg 54%
    14:00 +10°C° 0 mm 2 mps 685 mmHg 53%
    15:00 +10°C° 0 mm 2 mps 685 mmHg 53%
    16:00 +9°C° 0 mm 2 mps 684 mmHg 55%
    17:00 +9°C° 0 mm 1 mps 684 mmHg 58%
    18:00 +8°C° 0 mm 1 mps 684 mmHg 61%
    19:00 +8°C° 0 mm 1 mps 684 mmHg 64%
    20:00 +7°C° 0 mm 1 mps 685 mmHg 66%
    21:00 +5°C° 0 mm 0 mps 685 mmHg 69%
    22:00 +6°C° 0 mm 1 mps 685 mmHg 69%
    23:00 +6°C° 0 mm 1 mps 685 mmHg 69%

    22 March, Friday

    Time Temperature Precipitation Wind Pressure Humidity
    00:00 +6°C° 0 mm 1 mps 685 mmHg 69%
    01:00 +5°C° 0 mm 1 mps 685 mmHg 69%
    02:00 +5°C° 0 mm 1 mps 685 mmHg 68%
    03:00 +5°C° 0 mm 1 mps 685 mmHg 68%
    04:00 +5°C° 0 mm 1 mps 685 mmHg 68%
    05:00 +5°C° 0 mm 1 mps 685 mmHg 69%
    06:00 +5°C° 0 mm 1 mps 685 mmHg 69%
    07:00 +6°C° 0 mm 1 mps 685 mmHg 67%
    08:00 +7°C° 0 mm 1 mps 686 mmHg 65%
    09:00 +9°C° 0 mm 1 mps 686 mmHg 63%
    10:00 +8°C° 0.1 mm 2 mps 686 mmHg 62%
    11:00 +9°C° 0.1 mm 2 mps 686 mmHg 60%
    12:00 +10°C° 0.1 mm 2 mps 685 mmHg 58%
    13:00 +10°C° 0.1 mm 2 mps 685 mmHg 59%
    14:00 +10°C° 0.1 mm 2 mps 685 mmHg 59%
    15:00 +10°C° 0.1 mm 2 mps 684 mmHg 59%
    16:00 +9°C° 0.1 mm 2 mps 684 mmHg 65%
    17:00 +8°C° 0.1 mm 2 mps 684 mmHg 70%
    18:00 +7°C° 0.1 mm 2 mps 684 mmHg 76%
    19:00 +8°C° 0.1 mm 1 mps 684 mmHg 80%
    20:00 +7°C° 0.1 mm 1 mps 685 mmHg 84%
    21:00 +7°C° 0.1 mm 1 mps 685 mmHg 89%
    22:00 +7°C° 0.1 mm 1 mps 686 mmHg 90%
    23:00 +6°C° 0.1 mm 1 mps 686 mmHg 91%

    23 March, Saturday

    Time Temperature Precipitation Wind Pressure Humidity
    00:00 +6°C° 0.1 mm 1 mps 686 mmHg 93%
    01:00 +6°C° 0 mm 1 mps 686 mmHg 92%
    02:00 +4°C° 0 mm 0 mps 686 mmHg 91%
    03:00 +4°C° 0 mm 0 mps 686 mmHg 91%
    04:00 +4°C° 0 mm 0 mps 686 mmHg 89%
    05:00 +3°C° 0 mm 0 mps 685 mmHg 86%
    06:00 +4°C° 0 mm 1 mps 685 mmHg 84%
    07:00 +6°C° 0 mm 1 mps 685 mmHg 75%
    08:00 +7°C° 0 mm 1 mps 685 mmHg 67%
    09:00 +9°C° 0 mm 1 mps 685 mmHg 58%
    10:00 +9°C° 0 mm 2 mps 685 mmHg 54%
    11:00 +10°C° 0 mm 2 mps 684 mmHg 51%
    12:00 +12°C° 0 mm 2 mps 683 mmHg 47%
    13:00 +12°C° 0 mm 2 mps 683 mmHg 45%
    14:00 +13°C° 0 mm 2 mps 682 mmHg 44%
    15:00 +12°C° 0 mm 3 mps 681 mmHg 42%
    16:00 +12°C° 0 mm 2 mps 681 mmHg 48%
    17:00 +9°C° 0 mm 2 mps 680 mmHg 54%
    18:00 +8°C° 0 mm 2 mps 680 mmHg 59%
    19:00 +7°C° 0 mm 2 mps 680 mmHg 65%
    20:00 +8°C° 0 mm 1 mps 680 mmHg 70%
    21:00 +7°C° 0 mm 1 mps 681 mmHg 75%
    22:00 +7°C° 0.1 mm 1 mps 680 mmHg 78%
    23:00 +6°C° 0.1 mm 1 mps 680 mmHg 82%

    24 March, Sunday

    Time Temperature Precipitation Wind Pressure Humidity
    00:00 +6°C° 0.1 mm 1 mps 680 mmHg 85%
    01:00 +5°C° 0.6 mm 2 mps 680 mmHg 85%
    02:00 +4°C° 0.6 mm 2 mps 680 mmHg 86%
    03:00 +4°C° 0.6 mm 2 mps 680 mmHg 86%
    04:00 +3°C° 0.8 mm 2 mps 680 mmHg 87%
    05:00 +3°C° 0.8 mm 2 mps 680 mmHg 88%
    06:00 +2°C° 0.8 mm 2 mps 680 mmHg 88%
    07:00 +2°C° 1.5 mm 2 mps 681 mmHg 90%
    08:00 +2°C° 1.5 mm 2 mps 681 mmHg 92%
    09:00 0°C° 1.5 mm 3 mps 682 mmHg 94%
    10:00 0°C° 1 mm 3 mps 682 mmHg 93%
    11:00 +1°C° 1 mm 2 mps 682 mmHg 93%
    12:00 +1°C° 1 mm 2 mps 683 mmHg 92%
    13:00 +2°C° 0.3 mm 2 mps 683 mmHg 90%
    14:00 +2°C° 0.3 mm 2 mps 683 mmHg 87%
    15:00 +2°C° 0.3 mm 2 mps 683 mmHg 85%
    16:00 +2°C° 0.1 mm 2 mps 683 mmHg 85%
    17:00 +1°C° 0.1 mm 2 mps 684 mmHg 86%
    18:00 +1°C° 0.1 mm 2 mps 684 mmHg 86%
    19:00 -1°C° 0 mm 2 mps 684 mmHg 85%
    20:00 -2°C° 0 mm 2 mps 685 mmHg 84%
    21:00 -2°C° 0 mm 2 mps 685 mmHg 82%
    22:00 -2°C° 0 mm 2 mps 685 mmHg 81%
    23:00 -3°C° 0 mm 2 mps 685 mmHg 80%
    Show more